Find Local Weather

World > North America > United States > Wisconsin

Shawano, Wisconsin Regional Weather

Lat: 44.78N, Lon: 88.59W
Wx Zone: WIZ031
Warning FLW WEATHER ALERT - (More Info. Click Here) Warning
Feedback
Expires:201807211100;;816548
ASUS43 KMKX 211000
RWRWI 

WISCONSIN REGIONAL WEATHER ROUNDUP
NATIONAL WEATHER SERVICE MILWAUKEE/SULLIVAN WI
500 AM CDT SAT JUL 21 2018

NOTE: "FAIR" INDICATES FEW OR NO CLOUDS BELOW 12,000 FEET WITH NO
SIGNIFICANT WEATHER AND/OR OBSTRUCTIONS TO VISIBILITY.


WIZ011>013-019>022-031-037>040-048>050-211100-
NORTHEAST WISCONSIN
  
CITY           SKY/WX    TMP DP  RH WIND       PRES   REMARKS
ANTIGO         FAIR      59  59 100 N8        29.90R                  
SHAWANO        MOCLDY    67  63  87 N13G18    29.83R                  
OCONTO         CLOUDY    64  62  93 N8G17     29.80S                  
STURGEON BAY   CLOUDY    66  63  90 N12       29.80R                  
GREEN BAY      CLOUDY    67  63  87 N14       29.80R                  
MANITOWOC      CLOUDY    68  66  93 N9G17     29.77R                  
APPLETON       CLOUDY    64  63  94 N15G21    29.79R                  
CLINTONVILLE   CLOUDY    65  61  86 NE12      29.83R                  
OSHKOSH        CLOUDY    69  65  86 N14       29.78R                  
$$
 

SKY/WX - Weather  TMP - Temperature  DP - Dewpoint  RH - Relative Humidity
WIND - Wind Direction/Speed PRES - Barometric Pressure